"Pseudo-MPEC" for P10U951

Created 2019 Nov 10 1:07:19 UT using Find_Orb

Click here for an explanation of pseudo-MPECs

 
 Astrometry: 
     P10U951  C2019 11 041;6AstrometryJdt-redacted;Yy_b-3H/_gGbkY4ZclickXXnwkF51
     P10U951  C2019 11 04p.dex4)sAcL%YnNBS;ihereoa)ATf9E]!/D,M?IyN2nT!rwpYSTrF51
     P10U951  C2019 11 04.8/TufordcRda^k'aj'5VOldPdaFwoFQA`explanationY%nUjWaF51

Station data:
(F51) Pan-STARRS 1, Haleakala  (N20.707235 W156.255910)  US/Hawaii.
   Observers N. Primak, A. Schultz, S. Watters, J. Thiel, T. Goggia. Measurer
   PS1 Science Consortium. 1.8-m Ritchey-Chrétien + CCD.

Orbital elements:  P10U951
   Perihelion 2019 Aug 18.437720 +/- 76.3 TT = 10:30:19 (JD 2458713.937720)
Epoch 2019 Nov  5.0 TT = JDT 2458792.5   Earth MOID: 0.3266   Ma: 0.0312
M  44.36391683 +/- 29               (J2000 ecliptic)          AutoNEOCP
n   0.56469742 +/- 0.33             Peri.  300.03133 +/- 70
a   1.44963559 +/- 0.565            Node    49.71090 +/- 28
e   0.1199248 +/- 0.276             Incl.   14.10450 +/- 18
P   1.75/637.50d           H 22.6   G  0.15   U 12.0  SR
q 1.27578829 +/- 0.494    Q 1.62348290 +/- 35.5
From 3 observations 2019 Nov. 4 (31.7 min); mean residual 0".02
Residuals in arcseconds: 
191104 F51  .01+  .02-    191104 F51  .02-  .04+    191104 F51  .01+  .02-    

Ephemerides (geocentric):
Date (UTC) HH   RA              Dec         delta   r     elong  mag " sig PA
---- -- -- --  -------------   -----------  ------ ------ -----  --- ---- ---
2019 11 10 01  03 16 43.874   +16 37 57.13  .35458 1.3442 175.6 21.3  33d 170
2019 11 10 02  03 16 38.002   +16 39 08.47  .35463 1.3443 175.7 21.3  33d 170
2019 11 10 03  03 16 32.128   +16 40 19.78  .35468 1.3443 175.7 21.3  33d 170
2019 11 10 04  03 16 26.255   +16 41 31.06  .35473 1.3444 175.8 21.3  33d 170
2019 11 10 05  03 16 20.381   +16 42 42.31  .35478 1.3445 175.9 21.3  33d 170
2019 11 10 06  03 16 14.506   +16 43 53.53  .35483 1.3445 175.9 21.3  33d 171
2019 11 10 07  03 16 08.631   +16 45 04.73  .35488 1.3446 176.0 21.3  34d 171
2019 11 10 08  03 16 02.756   +16 46 15.89  .35493 1.3447 176.0 21.3  34d 171
2019 11 10 09  03 15 56.880   +16 47 27.03  .35498 1.3447 176.1 21.3  34d 171
2019 11 10 10  03 15 51.004   +16 48 38.13  .35503 1.3448 176.2 21.3  34d 171
2019 11 10 11  03 15 45.128   +16 49 49.21  .35509 1.3448 176.2 21.3  34d 171
2019 11 10 12  03 15 39.251   +16 51 00.25  .35514 1.3449 176.3 21.3  34d 171
2019 11 10 13  03 15 33.374   +16 52 11.27  .35519 1.3450 176.4 21.3  35d 171
2019 11 10 14  03 15 27.497   +16 53 22.25  .35524 1.3450 176.4 21.3  35d 171
2019 11 10 15  03 15 21.620   +16 54 33.20  .35530 1.3451 176.5 21.3  35d 171
2019 11 10 16  03 15 15.742   +16 55 44.12  .35535 1.3451 176.6 21.3  35d 171
2019 11 10 17  03 15 09.865   +16 56 55.01  .35541 1.3452 176.6 21.3  35d 171
2019 11 10 18  03 15 03.987   +16 58 05.87  .35546 1.3453 176.7 21.3  35d 171
2019 11 10 19  03 14 58.109   +16 59 16.70  .35551 1.3453 176.8 21.3  35d 171
2019 11 10 20  03 14 52.231   +17 00 27.50  .35557 1.3454 176.8 21.3  35d 171
2019 11 10 21  03 14 46.353   +17 01 38.26  .35563 1.3455 176.9 21.3  35d 171
2019 11 10 22  03 14 40.475   +17 02 49.00  .35568 1.3455 176.9 21.3  36d 171
2019 11 10 23  03 14 34.596   +17 03 59.70  .35574 1.3456 177.0 21.3  36d 171
2019 11 11 00  03 14 28.718   +17 05 10.36  .35579 1.3456 177.1 21.3  36d 171
2019 11 11 01  03 14 22.840   +17 06 21.00  .35585 1.3457 177.1 21.3  36d 172
2019 11 11 02  03 14 16.962   +17 07 31.60  .35591 1.3458 177.2 21.3  36d 172
2019 11 11 03  03 14 11.084   +17 08 42.17  .35597 1.3458 177.3 21.3  36d 172
2019 11 11 04  03 14 05.206   +17 09 52.71  .35602 1.3459 177.3 21.3  36d 172
2019 11 11 05  03 13 59.328   +17 11 03.22  .35608 1.3459 177.4 21.3  36d 172
2019 11 11 06  03 13 53.450   +17 12 13.69  .35614 1.3460 177.5 21.3  37d 172
2019 11 11 07  03 13 47.572   +17 13 24.13  .35620 1.3461 177.5 21.3  37d 172
2019 11 11 08  03 13 41.695   +17 14 34.53  .35626 1.3461 177.6 21.3  37d 172
2019 11 11 09  03 13 35.818   +17 15 44.90  .35632 1.3462 177.7 21.2  37d 172
2019 11 11 10  03 13 29.941   +17 16 55.24  .35638 1.3463 177.7 21.2  37d 172
2019 11 11 11  03 13 24.064   +17 18 05.54  .35644 1.3463 177.8 21.2  37d 172
2019 11 11 12  03 13 18.188   +17 19 15.81  .35650 1.3464 177.8 21.2  38d 172
2019 11 11 13  03 13 12.311   +17 20 26.05  .35656 1.3464 177.9 21.2  38d 172
2019 11 11 14  03 13 06.435   +17 21 36.25  .35662 1.3465 178.0 21.2  38d 172
2019 11 11 15  03 13 00.560   +17 22 46.41  .35668 1.3466 178.0 21.2  38d 172
2019 11 11 16  03 12 54.685   +17 23 56.54  .35674 1.3466 178.1 21.2  38d 172
2019 11 11 17  03 12 48.810   +17 25 06.64  .35681 1.3467 178.2 21.2  38d 172
2019 11 11 18  03 12 42.936   +17 26 16.70  .35687 1.3467 178.2 21.2  38d 172
2019 11 11 19  03 12 37.062   +17 27 26.72  .35693 1.3468 178.3 21.2  38d 172
2019 11 11 20  03 12 31.188   +17 28 36.71  .35699 1.3469 178.4 21.2  38d 172
2019 11 11 21  03 12 25.315   +17 29 46.67  .35706 1.3469 178.4 21.2  38d 171
2019 11 11 22  03 12 19.443   +17 30 56.59  .35712 1.3470 178.5 21.2  38d 171
2019 11 11 23  03 12 13.571   +17 32 06.47  .35719 1.3471 178.5 21.2  38d 171
2019 11 12 00  03 12 07.699   +17 33 16.31  .35725 1.3471 178.6 21.2  38d 171